Weather History for Keahole Point, HI

Change the Weather History Date:

Sunday, March 30, 2014

  Actual Average Record
Temperature  
Mean Temperature 76 °F -  
Max Temperature 81 °F 79 °F 88 °F (1986)
Min Temperature 71 °F 68 °F 64 °F (1987)
Cooling Degree Days 11    
Growing Degree Days 26 (Base 50)    
Moisture  
Dew Point 65 °F    
Average Humidity 68    
Maximum Humidity 84    
Minimum Humidity 58    
Precipitation  
Precipitation 0.01 in - - ()
Sea Level Pressure  
Sea Level Pressure 29.96 in    
Wind  
Wind Speed 5 mph (South)    
Max Wind Speed 12 mph    
Max Gust Speed -    
Visibility 10 miles    
Events      
Averages and records for this station are not official NWS values.
T = Trace of Precipitation, MM = Missing Value Source: NWS Daily Summary

Daily Weather History Graph

Daily Weather History Graph

Search for Another Location

Airport:

Trip Planner

Search our weather history database for the weather conditions in past years. The results will help you decide how hot, cold, wet, or windy it might be!

Date:

Astronomy

Mar. 30, 2014 Rise Set
Actual Time 6:19 AM HST 6:37 PM HST
Civil Twilight 5:57 AM HST 6:59 PM HST
Nautical Twilight 5:31 AM HST 7:25 PM HST
Astronomical Twilight 5:05 AM HST 7:51 PM HST
Moon 6:13 AM HST (3/30) 6:56 PM HST (3/30)
Length of Visible Light 13h 02m
Length of Day
12h 18m
New Moon, 0% of the Moon is Illuminated
Mar 30
New Moon
Apr 6
First Quarter
Apr 14
Full
Apr 21
Last Quarter
Apr 28
New

Hourly Weather History & Observations

Time (HST) Temp. Heat Index Dew Point Humidity Pressure Visibility Wind Dir Wind Speed Gust Speed Precip Events Conditions
12:53 AM 71.1 °F - 64.9 °F 81% 29.99 in 10.0 mi Calm Calm - 0.01 in   Overcast
1:53 AM 72.0 °F - 64.9 °F 78% 29.96 in 10.0 mi East 4.6 mph - N/A   Scattered Clouds
2:53 AM 71.1 °F - 64.9 °F 81% 29.94 in 10.0 mi NE 5.8 mph - N/A   Mostly Cloudy
3:53 AM 72.0 °F - 62.1 °F 71% 29.93 in 10.0 mi East 4.6 mph - N/A   Mostly Cloudy
4:53 AM 71.1 °F - 66.0 °F 84% 29.93 in 10.0 mi SE 10.4 mph - N/A   Clear
5:53 AM 71.1 °F - 64.9 °F 81% 29.94 in 10.0 mi SE 11.5 mph - N/A   Clear
6:53 AM 73.0 °F - 63.0 °F 71% 29.97 in 10.0 mi East 8.1 mph - N/A   Clear
7:53 AM 73.9 °F - 66.0 °F 76% 29.99 in 10.0 mi South 3.5 mph - N/A   Clear
8:53 AM 77.0 °F - 64.9 °F 66% 29.99 in 10.0 mi Calm Calm - N/A   Clear
9:53 AM 78.1 °F - 66.0 °F 66% 29.99 in 10.0 mi West 5.8 mph - N/A   Clear
10:53 AM 80.1 °F 81.9 °F 64.9 °F 60% 30.00 in 10.0 mi WSW 8.1 mph - N/A   Clear
11:53 AM 81.0 °F 82.7 °F 64.9 °F 58% 29.99 in 10.0 mi WSW 6.9 mph - N/A   Clear
12:53 PM 80.1 °F 82.1 °F 66.0 °F 62% 29.97 in 10.0 mi West 6.9 mph - N/A   Partly Cloudy
1:53 PM 80.1 °F 82.1 °F 66.0 °F 62% 29.95 in 10.0 mi SSW 9.2 mph - N/A   Clear
2:53 PM 81.0 °F 82.7 °F 64.9 °F 58% 29.94 in 10.0 mi WSW 6.9 mph - N/A   Partly Cloudy
3:53 PM 80.1 °F 81.9 °F 64.9 °F 60% 29.93 in 10.0 mi SW 3.5 mph - N/A   Partly Cloudy
4:53 PM 80.1 °F 81.7 °F 64.0 °F 58% 29.92 in 10.0 mi West 4.6 mph - N/A   Clear
5:53 PM 79.0 °F - 64.0 °F 60% 29.94 in 10.0 mi Calm Calm - N/A   Scattered Clouds
6:53 PM 78.1 °F - 64.0 °F 62% 29.95 in 10.0 mi Calm Calm - N/A   Clear
7:53 PM 78.1 °F - 64.0 °F 62% 29.96 in 10.0 mi South 3.5 mph - N/A   Partly Cloudy
8:53 PM 77.0 °F - 64.9 °F 66% 29.98 in 10.0 mi SE 3.5 mph - N/A   Clear
9:53 PM 75.0 °F - 64.9 °F 71% 29.99 in 10.0 mi SE 6.9 mph - N/A   Clear
10:53 PM 75.0 °F - 64.0 °F 69% 29.99 in 10.0 mi SE 10.4 mph - N/A   Clear
11:53 PM 73.9 °F - 64.0 °F 71% 29.99 in 10.0 mi SE 8.1 mph - N/A   Clear